BMCB-36 Weather Reports


time (UTC)temp
C
wind
direction
speed
KPH
gust
KPH
rain 1hr
cm
rain 24hr
cm
rain mn
cm
humidity
%
barometer
mb
20260503034043 13 0 0.0 0.0 0.00 0.91 0.00 88 1013.8
20260503033043 13 0 0.0 0.0 0.00 0.91 0.00 88 1013.8
20260503031041 13 0 0.0 0.0 0.00 0.91 0.00 90 1013.8
20260503025044 13 0 0.0 0.0 0.00 0.91 0.00 90 1013.8
20260503024042 13 0 0.0 0.0 0.00 0.91 0.00 90 1014.0
20260503023043 13 0 0.0 0.0 0.00 0.91 0.00 89 1014.0
20260503022041 13 0 0.0 0.0 0.00 0.91 0.00 90 1014.1
20260503021043 13 0 0.0 0.0 0.00 0.91 0.00 90 1014.1
20260503015042 13 0 0.0 0.0 0.00 0.91 0.00 89 1014.3
20260503014043 13 0 0.0 0.0 0.00 0.91 0.00 89 1014.3
20260503013044 14 0 0.0 0.0 0.00 0.91 0.00 88 1014.3
20260503012044 14 0 0.0 0.0 0.00 0.91 0.00 88 1014.4
20260503011042 14 0 0.0 0.0 0.00 0.91 0.00 88 1014.4
20260503005046 13 0 0.0 0.0 0.00 0.91 0.00 90 1014.6
20260503004044 13 0 0.0 0.0 0.00 0.91 0.00 91 1014.7
20260503003044 14 0 0.0 0.0 0.00 0.91 0.00 90 1014.8
20260503002045 14 0 0.0 0.0 0.00 0.91 0.00 89 1014.8
20260503001044 14 0 0.0 0.0 0.00 0.91 0.00 88 1014.8
20260503000047 15 0 0.0 0.0 0.00 0.91 0.00 86 1014.8
20260502235047 15 0 0.0 0.0 0.00 0.91 0.00 86 1014.9
20260502233047 15 0 0.0 0.0 0.00 0.91 0.00 87 1015.0
20260502232047 15 0 0.0 0.0 0.00 0.91 0.00 88 1015.0
20260502231045 15 0 0.0 0.0 0.00 0.91 0.00 87 1015.1
20260502230045 15 0 0.0 0.0 0.00 0.91 0.00 88 1015.1
20260502224045 15 0 0.0 0.0 0.00 0.91 0.00 88 1015.3
20260502221045 15 0 0.0 0.0 0.00 0.91 0.00 88 1015.3
20260502220046 15 0 0.0 0.0 0.00 0.91 0.00 87 1015.3
20260502215047 15 0 0.0 0.0 0.00 0.91 0.91 87 1015.3
20260502214047 15 0 0.0 0.0 0.00 0.91 0.91 86 1015.4
20260502213050 15 0 0.0 0.0 0.00 0.91 0.91 87 1015.5
20260502212048 15 0 0.0 0.0 0.00 0.91 0.91 87 1015.5
20260502211047 15 0 0.0 0.0 0.00 0.91 0.91 86 1015.5
20260502210049 15 0 0.0 0.0 0.00 0.91 0.91 87 1015.6
20260502203051 15 0 0.0 0.0 0.00 0.91 0.91 89 1015.6
20260502201059 15 0 0.0 0.0 0.00 0.91 0.91 92 1015.7
20260502200051 15 0 0.0 0.0 0.00 0.91 0.91 92 1015.8
20260502194045 15 0 0.0 0.0 0.00 0.91 0.91 92 1015.7
20260502193047 15 0 0.0 0.0 0.03 0.91 0.91 92 1015.8
20260502192048 15 0 0.0 0.0 0.03 0.91 0.91 92 1015.8
20260502184048 16 0 0.0 0.0 0.05 0.91 0.91 88 1015.9
20260502183046 16 0 0.0 0.0 0.38 0.91 0.91 86 1015.8
20260502182046 16 0 0.0 0.0 0.84 0.89 0.89 88 1015.8
20260502181048 15 0 0.0 0.0 0.89 0.89 0.89 88 1016.0
20260502164046 23 0 0.0 0.0 0.00 0.00 0.00 52 1014.7
20260502162045 23 0 0.0 0.0 0.00 0.00 0.00 50 1015.1
20260502161049 23 0 0.0 0.0 0.00 0.00 0.00 50 1015.4
20260502151047 23 0 0.0 0.0 0.00 0.00 0.00 50 1015.8
20260502123045 21 0 0.0 0.0 0.00 0.00 0.00 59 1018.5
20260502122046 21 0 0.0 0.0 0.00 0.00 0.00 59 1018.6
20260502121043 21 0 0.0 0.0 0.00 0.00 0.00 59 1018.6
20260502115042 22 0 0.0 0.0 0.00 0.00 0.00 60 1018.9
20260502114044 21 0 0.0 0.0 0.00 0.00 0.00 60 1019.1
20260502113044 21 0 0.0 0.0 0.00 0.00 0.00 59 1019.1
20260502112045 22 0 0.0 0.0 0.00 0.00 0.00 59 1019.2
20260502111044 22 0 0.0 0.0 0.00 0.00 0.00 59 1019.3
20260502110042 22 0 0.0 0.0 0.00 0.00 0.00 59 1019.3
20260502104043 21 0 0.0 0.0 0.00 0.00 0.00 59 1019.6
20260502103044 21 0 0.0 0.0 0.00 0.00 0.00 60 1019.6
20260502102044 21 0 0.0 0.0 0.00 0.00 0.00 60 1019.7
20260502101046 21 0 0.0 0.0 0.00 0.00 0.00 61 1019.8
20260502091045 20 0 0.0 0.0 0.00 0.00 0.00 64 1020.4
20260502065046 13 0 0.0 0.0 0.00 0.00 0.00 66 1021.8
20260502064045 13 0 0.0 0.0 0.00 0.00 0.00 65 1021.8
20260502063045 13 0 0.0 0.0 0.00 0.00 0.00 64 1021.9
20260502062043 13 0 0.0 0.0 0.00 0.00 0.00 62 1021.9
20260502061046 13 0 0.0 0.0 0.00 0.00 0.00 61 1022.0
20260502060044 13 0 0.0 0.0 0.00 0.00 0.00 60 1021.9
20260502055045 13 0 0.0 0.0 0.00 0.00 0.00 60 1021.9
20260502054045 13 0 0.0 0.0 0.00 0.00 0.00 62 1021.8
20260502053045 13 0 0.0 0.0 0.00 0.00 0.00 62 1021.7
20260502052042 13 0 0.0 0.0 0.00 0.00 0.00 60 1021.7
20260502051042 13 0 0.0 0.0 0.00 0.00 0.00 58 1021.8
20260502045045 13 0 0.0 0.0 0.00 0.00 0.00 57 1021.6
20260502044045 13 0 0.0 0.0 0.00 0.00 0.00 57 1021.7
20260502043045 13 0 0.0 0.0 0.00 0.00 0.00 56 1021.7
20260502042043 12 0 0.0 0.0 0.00 0.00 0.00 56 1021.6
20260502041041 12 0 0.0 0.0 0.00 0.00 0.00 55 1021.4
20260502040045 12 0 0.0 0.0 0.00 0.00 0.00 55 1021.6